Location: Street
(51.1247°N, 2.7429°W)
Time: 07:24:54
(UTC+00:00)

Envisat - Visible Passes

Search period start: 04 December 2022 00:00
Search period end: 14 December 2022 00:00
Orbit: 763 x 765 km, 98.2° (Epoch: 03 December)

Date Brightness Start Highest point End Pass type
(mag) Time Alt. Az. Time Alt. Az. Time Alt. Az.
04 Dec 5.3 03:43:59 10° NNE 03:45:48 20° NE 03:45:48 20° NE visible
04 Dec 3.9 05:22:51 10° N 05:25:58 32° NNW 05:25:58 32° NNW visible
04 Dec 5.7 16:44:08 10° SW 16:47:49 20° W 16:51:31 10° NW visible
05 Dec 6.0 03:07:58 10° NE 03:08:13 11° NE 03:08:13 11° NE visible
05 Dec 4.2 04:45:40 10° NNE 04:48:23 32° N 04:48:23 32° N visible
05 Dec 4.5 06:25:59 10° NNW 06:28:33 16° NW 06:28:33 16° NW visible
06 Dec 4.9 04:08:46 10° NNE 04:10:48 23° NNE 04:10:48 23° NNE visible
06 Dec 4.2 05:48:11 10° N 05:50:58 24° NNW 05:50:58 24° NNW visible
06 Dec 6.0 17:11:10 10° WSW 17:13:13 12° W 17:15:15 10° WNW visible
07 Dec 5.6 03:32:14 10° NE 03:33:14 14° NE 03:33:14 14° NE visible
07 Dec 4.2 05:10:49 10° N 05:13:24 29° N 05:13:24 29° N visible
07 Dec 4.8 06:52:21 10° NNW 06:53:34 11° NW 06:53:34 11° NW visible
08 Dec 4.6 04:33:43 10° NNE 04:35:50 25° NNE 04:35:50 25° NNE visible
08 Dec 4.5 06:13:42 10° NNW 06:16:00 18° NW 06:16:00 18° NW visible
09 Dec 5.3 03:56:54 10° NNE 03:58:16 18° NE 03:58:16 18° NE visible
09 Dec 4.3 05:36:05 10° N 05:38:27 24° NNW 05:38:27 24° NNW visible
09 Dec 5.8 16:58:06 10° WSW 17:01:05 15° W 17:04:03 10° NW visible
10 Dec 5.9 03:20:33 10° NE 03:20:43 11° NE 03:20:43 11° NE visible
10 Dec 4.5 04:58:47 10° N 05:00:54 25° N 05:00:54 25° N visible
10 Dec 4.8 06:39:36 10° NNW 06:41:04 13° NW 06:41:04 13° NW visible
11 Dec 5.0 04:21:46 10° NNE 04:23:20 20° NNE 04:23:20 20° NNE visible
11 Dec 4.5 06:01:30 10° N 06:03:31 19° NNW 06:03:31 19° NNW visible
12 Dec 5.6 03:45:05 10° NNE 03:45:48 14° NE 03:45:48 14° NE visible
12 Dec 4.5 05:24:00 10° N 05:25:59 22° N 05:25:59 22° N visible
12 Dec 5.7 16:45:22 10° SW 16:48:57 19° W 16:52:34 10° NW visible
13 Dec 4.8 04:46:47 10° NNE 04:48:26 21° NNE 04:48:26 21° NNE visible
13 Dec 4.7 06:27:10 10° NNW 06:28:37 14° NNW 06:28:37 14° NNW visible
